{"data":{"norad_id":44307,"intl_designator":"2019-031A","name":"YAMAL 601","alt_names":[],"object_type":"PAYLOAD","status":"ACTIVE","operator":null,"country":"CIS","launch_date":"2019-05-30","launch_site_code":"TYMSC","launch_vehicle":null,"mission":null,"orbit_class":"UNKNOWN","rcs_meters":null,"size_class":null,"mass_kg":null,"dimensions":null,"purposes":["comms"],"wikipedia_slug":null,"has_3d_model":false,"image_url":null,"decayed_at":null,"tle_current":{"epoch":"2026-05-25T03:58:38.417952Z","epoch_age_seconds":67572,"freshness":"FRESH","line1":"1 44307U 19031A   26145.16572243  .00000118  00000+0  00000+0 0  9998","line2":"2 44307   0.0157  34.5784 0002642  23.1023 293.7364  1.00271346 25699","mean_motion":1.00271346,"eccentricity":0.0002642,"inclination_deg":0.0157,"raan_deg":34.5784,"arg_perigee_deg":23.1023,"mean_anomaly_deg":293.7364,"bstar":0,"rev_number":2569,"period_min":1436.1031914342,"perigee_km":35775.578074577,"apogee_km":35797.857983975,"semimajor_km":42164.855029276,"source":"CELESTRAK","updated_at":"2026-05-25T13:38:14.085873Z"}}}